ROMMA est une association bénévole à but non lucratif. Votre soutien est indispensable : ADHERER à ROMMA ou FAIRE un DON

Die - (26, Drôme)

Diois (400 m)   Longitude: 5° 21' 55"E   Latitude: 44° 45' 16"N Station partenaire n°159
 

Détail journalier du     <<     >>

Température Precipitation Humidité Pression Vent Dir Rafale Dir. rafale Ensol.
Heure (°C) (mm) (%) (hPa) (km/h) (km/h) (min)
01:00 10.9095102103OSO0
02:00 10.4096102002OSO0
03:00 9.7095102002OSO0
04:00 9.4096102003OSO0
05:00 9.60961019000
06:00 9.5097101903OSO0
07:00 9.7096101803ONO0
08:00 9.9097101903ONO0
09:00 11.1097101903ONO0
10:00 12.9091101903ONO0
11:00 15.408110192SO5SO30
12:00 18.606710182SSE6SO60
13:00 18.307210172ENE5N0
14:00 18.207410162OSO8ONO0
15:00 18.307410161SO6SO0
16:00 17.707810162OSO6NNO0
17:00 17.108110161NNO5N30
18:00 15.1088101605OSO0
19:00 13.6091101602SSO0
20:00 12.8092101605SSO0
21:00 12.2093101603SSO0
22:00 12.2095101602SSO0
23:00 12.2095101603SSO0
minuit 12.3096101602SSO0

Graphique du 28-10-2019

 

Serveur OMMA